Location: *
(49.0767°N, 0.8192°W)
Time: 18:27:54
(UTC+00:00)

Daily predictions for brighter satellites

Satellite Brightness Start Highest point End
(mag) Time Altitude Azimuth Time Altitude Azimuth Time Altitude Azimuth
Cosmos 1821 Rocket 4.1 17:36:17 10° N 17:42:13 50° ENE 17:48:08 10° SSE
Cosmos 2366 rocket 4.4 17:36:19 10° NNW 17:42:37 72° W 17:48:50 10° S
Cosmos 1833 Rocket 4.2 17:41:00 10° N 17:44:58 19° NE 17:48:55 10° E
Cosmos 1758 3.3 17:44:44 10° S 17:48:39 64° E 17:52:37 10° NNE
Unknown 4.4 17:45:25 10° SSW 17:49:14 37° SE 17:53:05 10° ENE
Unknown 4.4 17:45:29 10° SSW 17:49:18 37° SE 17:53:09 10° ENE
Cosmos 1184 Rocket 4.3 17:46:27 10° SSW 17:49:37 42° WNW 17:52:48 10° N
Unknown 4.4 17:46:16 10° SSW 17:50:06 37° SE 17:53:57 10° ENE
SL-24 R/B - RUBIN 2 4.4 17:45:39 10° SW 17:50:29 66° NW 17:56:01 10° NE
Nadezhda 3 Rocket 4.2 17:44:40 10° SSE 17:50:43 52° E 17:56:50 10° NNE
COBE Rocket 4.1 17:46:25 10° NNE 17:51:32 55° E 17:56:34 10° S
NOAA 12 4.2 17:46:37 10° SSE 17:51:53 89° WSW 17:57:14 10° NNW
H-2A R/B 3.5 17:48:46 10° S 17:52:35 59° W 17:56:29 10° NNW
Cosmos 2228 3.7 17:49:49 10° SSE 17:53:46 34° E 17:57:43 10° NNE
Cosmos 1626 2.2 17:50:08 10° N 17:53:52 84° W 17:57:35 10° S
Unknown 4.3 17:50:20 10° SSW 17:54:12 40° SE 17:58:06 10° ENE
Unknown 4.3 17:50:21 10° SSW 17:54:14 40° SE 17:58:07 10° ENE
Unknown 4.2 17:52:03 10° SW 17:55:58 42° SE 17:59:54 10° ENE
COSMOS 2406 3.9 17:50:49 10° NNW 17:56:08 36° NE 18:01:24 10° ESE
Cosmos 371 Rocket 4.0 17:52:51 10° SW 17:57:36 57° WNW 18:02:22 10° NNE
Cosmos 1934 Rocket 4.3 17:52:49 10° N 17:58:50 45° ENE 18:04:53 10° SE
Unknown 4.1 17:55:18 10° SW 17:59:15 44° SE 18:03:09 10° ENE
Unknown 4.1 17:55:58 10° SW 17:59:54 44° SE 18:03:45 11° ENE
Envisat 3.0 17:55:05 10° SSE 18:00:10 84° ENE 18:05:17 10° NNW
Cosmos 2082 Rocket 3.7 17:56:18 10° N 18:00:15 19° NE 18:04:05 10° E
Unknown 4.1 17:56:54 10° SW 18:00:51 44° SE 18:04:41 11° ENE
COSMO-SKYMED 1 2.7 17:57:48 10° NNE 18:02:05 53° E 18:06:19 10° S
Cosmos 1726 3.3 18:00:50 10° SE 18:03:36 21° E 18:06:23 10° NE
Cosmos 304 Rocket 3.7 17:58:51 10° SSW 18:03:39 78° ESE 18:08:29 10° NNE
Unknown 4.1 18:00:06 10° SW 18:04:03 45° SE 18:07:45 12° ENE
ATLAS CENTAUR R/B 4.1 18:02:14 10° NW 18:04:59 15° NNW 18:07:39 10° NNE
FengYun 1-2 T 4.2 17:59:51 10° SSE 18:05:29 77° ENE 18:11:07 10° NNW
Cosmos 921 Rocket 4.0 18:02:03 10° SSE 18:05:53 28° E 18:09:43 10° NE
Cosmos 1939 Rocket 3.7 18:02:48 10° SE 18:06:13 29° ENE 18:09:42 10° N
Cosmos 482 Debris 4.5 18:01:10 10° WNW 18:07:01 84° NNE 18:10:07 12° ESE
Unknown 4.0 18:03:27 10° SW 18:07:27 49° SE 18:11:03 12° ENE
Unknown 4.0 18:05:06 10° SW 18:09:06 50° SE 18:12:38 13° ENE
Unknown 3.9 18:06:47 10° SW 18:10:48 51° SSE 18:14:17 13° ENE
Unknown 3.9 18:08:25 10° SW 18:12:27 53° SSE 18:15:52 14° ENE
CSL-04 Debris 4.2 18:07:46 10° SSE 18:13:11 72° ENE 18:18:40 10° NNW
CZ-4 R/B 4.4 18:09:16 10° SSE 18:13:23 87° ENE 18:17:31 10° NNW
Lacrosse 5 rocket 1.1 18:10:02 10° NW 18:13:47 89° SW 18:17:43 10° SE
Cosmos 1825 Rocket 3.6 18:10:34 10° N 18:14:57 85° WSW 18:19:20 10° S
Cosmos 1953 Rocket 3.5 18:11:05 10° N 18:15:29 69° ENE 18:19:50 10° SSE
Unknown 3.8 18:11:41 10° SW 18:15:44 55° SSE 18:19:02 15° ENE
Unknown 3.8 18:13:24 10° SW 18:17:28 57° SSE 18:20:42 15° ENE
USA 116 3.5 18:15:06 10° NNE 18:18:05 41° E 18:21:07 10° S
Unknown 3.8 18:15:01 10° SW 18:19:04 58° SSE 18:22:15 16° ENE
Cosmos 2084 4.0 18:15:53 10° SSW 18:20:10 42° SE 18:24:05 12° NE
Unknown 3.8 18:16:36 10° SW 18:20:40 58° SSE 18:23:46 17° ENE
Unknown 3.7 18:17:15 10° SW 18:21:19 60° SSE 18:24:25 17° ENE
CZ-4 R/B 1.6 18:18:56 10° S 18:23:04 78° WSW 18:27:18 10° NNW
Cosmos 1354 Rocket 4.1 18:18:27 10° NNW 18:23:43 83° WSW 18:28:57 10° SSE
Unknown 3.8 18:19:47 10° SW 18:23:52 58° SSE 18:26:49 18° ENE
FALCON 9 DEB 4.0 18:20:42 10° WNW 18:24:03 42° N 18:26:23 17° ENE
Unknown 4.0 18:21:14 10° W 18:24:37 43° N 18:27:00 17° ENE
Cosmos 1242 Rocket 2.7 18:23:13 10° N 18:26:51 52° ENE 18:30:27 10° SSE
Unknown 3.7 18:23:07 10° SW 18:27:12 61° SSE 18:30:03 19° ENE
Meteor 1-16 Rocket 4.2 18:21:48 10° S 18:27:15 56° E 18:32:35 10° NNE
Unknown 3.7 18:24:45 10° SW 18:28:50 62° SSE 18:31:37 20° ENE
Cosmos 1328 3.9 18:24:55 10° N 18:28:51 51° ENE 18:32:43 10° SSE
Unknown 3.5 18:25:39 10° WSW 18:29:33 75° NNW 18:32:18 19° ENE
Unknown 2.6 18:27:42 10° WNW 18:30:21 60° NNE 18:31:23 31° E
Cosmos 1844 Rocket 2.6 18:24:44 10° SSW 18:30:22 74° ESE 18:36:02 10° NNE
ADEOS Rocket 4.5 18:24:46 10° NE 18:30:34 22° E 18:36:08 10° SE
Unknown 3.6 18:26:36 10° SW 18:30:43 68° SSE 18:33:28 20° ENE
Cosmos 1606 Rocket 3.6 18:27:07 10° S 18:31:31 87° W 18:35:55 10° N
Unknown 3.6 18:28:02 10° SW 18:32:08 65° SSE 18:34:47 21° ENE
Cosmos 2285 Rocket 4.4 18:26:56 10° NNW 18:33:21 69° WSW 18:39:41 10° S
Cosmos 1470 4.2 18:29:46 10° SSW 18:33:34 42° WNW 18:37:23 10° N
Cosmos 1908 3.9 18:30:21 10° SSE 18:33:50 31° E 18:37:19 10° NNE
Unknown 3.6 18:29:43 10° SW 18:33:50 67° SSE 18:36:26 22° ENE
Unknown 3.7 18:30:26 10° W 18:34:14 65° NNW 18:36:44 20° ENE
Unknown 3.8 18:32:35 10° W 18:36:17 54° NNW 18:38:33 21° ENE
Unknown 3.6 18:32:59 10° SW 18:37:06 70° SSE 18:39:34 23° ENE
Unknown 3.6 18:34:42 10° SW 18:38:50 71° SSE 18:41:13 24° ENE
ASTEX 1 3.5 18:34:09 10° N 18:39:06 81° W 18:44:03 10° SSW
Cosmos 968 Rocket 4.2 18:34:20 10° NNW 18:39:29 56° WSW 18:44:37 10° S
Unknown 3.9 18:36:35 10° WNW 18:39:51 41° N 18:41:24 25° NE
Unknown 3.6 18:36:21 10° SW 18:40:28 73° SSE 18:42:48 25° ENE
Meteor 2-10 4.0 18:36:42 10° S 18:41:41 55° E 18:46:37 10° NNE
SPOT 3 Rocket 4.4 18:39:51 22° E 18:41:55 29° ENE 18:46:20 10° N
Unknown 3.5 18:38:02 10° WSW 18:42:09 75° SSE 18:44:26 26° ENE
Ariane Rocket 3.0 18:37:42 10° SSE 18:42:44 64° ENE 18:47:48 10° N
Cosmos 2278 Rocket 3.1 18:39:29 10° SSE 18:44:06 26° ESE 18:46:34 19° ENE
Unknown 3.5 18:41:20 10° WSW 18:45:28 78° SSE 18:47:37 28° ENE
SWAS 4.4 18:42:03 10° SSW 18:46:14 58° ESE 18:50:16 11° NE
YAOGAN 6 4.0 18:43:03 10° S 18:46:34 42° W 18:50:04 10° NNW
Cosmos 1844 3.6 18:41:00 10° SSW 18:46:42 78° ESE 18:52:30 10° NNE
Unknown 3.5 18:43:05 10° WSW 18:47:13 81° SSE 18:49:19 28° ENE
Falcon 9 debris 3.9 18:44:07 10° WNW 18:47:25 41° N 18:48:41 28° NE
Unknown 3.5 18:43:16 10° WSW 18:47:26 86° SSE 18:49:33 28° ENE
Unknown 4.0 18:45:15 10° WNW 18:48:37 42° N 18:49:56 28° NE
Unknown 3.5 18:44:52 10° WSW 18:49:01 86° SSE 18:51:05 29° ENE
SKYMED 2 4.4 18:45:52 10° N 18:50:06 52° WNW 18:54:19 10° SSW
Unknown 3.5 18:47:54 10° WSW 18:52:03 84° SSE 18:53:57 31° ENE
Cosmos 1992 Rocket 4.2 18:48:33 10° SSW 18:53:47 73° WNW 18:59:02 10° NNE
Unknown 3.5 18:51:14 10° WSW 18:55:24 87° SSE 18:57:10 34° ENE
Unknown 3.5 18:52:58 10° WSW 18:57:07 88° SSE 18:58:49 35° ENE
USA 234 4.3 18:57:29 22° ESE 18:57:42 22° SE 19:02:37 10° S
CZ-4C R/B 4.1 18:50:59 10° NW 18:57:45 42° WSW 19:05:17 10° S
YAOGAN 1 3.7 18:53:57 10° S 18:58:06 45° W 19:02:17 10° NNW
Unknown 3.5 18:54:33 10° WSW 18:58:43 90° SW 19:00:21 36° ENE
Cosmos 1777 Rocket 3.9 18:55:07 10° NNW 19:00:21 68° ENE 19:03:37 23° SE
Unknown 3.5 18:56:16 10° WSW 19:00:26 89° NNW 19:02:00 37° ENE
H-2A R/B 2.8 18:59:39 31° E 19:00:54 34° ENE 19:05:43 10° N
Unknown 3.0 18:58:17 10° WNW 19:01:23 58° NNE 19:01:36 56° NE
SJ-11-01 4.4 18:59:52 28° SE 19:02:04 51° ENE 19:06:38 10° N
ATLAS 5 CENTAUR R/B 2.2 18:58:19 10° WSW 19:02:36 56° NW 19:07:08 12° NE
SL-4 R/B 3.4 19:02:19 10° W 19:05:39 29° SW 19:07:19 20° S
Unknown 3.6 19:02:45 10° WSW 19:06:52 78° NNW 19:08:10 42° ENE
Unknown 3.6 19:02:54 10° WSW 19:07:04 83° NNW 19:08:22 43° ENE
Unknown 3.6 19:04:33 10° WSW 19:08:43 82° NNW 19:09:57 44° ENE
Cosmos 839 Rocket 4.2 19:04:00 10° NW 19:10:10 75° WSW 19:16:04 15° SSE
CZ-2D R/B 4.0 19:06:29 10° S 19:10:14 53° W 19:14:03 10° NNW
Unknown 3.6 19:06:15 10° WSW 19:10:25 81° NNW 19:11:35 46° ENE
CZ-2C R/B 4.1 19:10:55 30° ENE 19:11:25 31° ENE 19:16:26 10° N
HJ-1C 3.4 19:10:36 34° S 19:11:57 79° WSW 19:15:21 10° NNW
Unknown 3.6 19:07:54 10° WSW 19:12:03 79° NNW 19:13:09 47° NE
FREGAT/IRIS 4.4 19:14:42 22° N 19:14:42 22° N 19:15:51 10° N
Unknown 3.6 19:09:32 10° WSW 19:13:41 78° NNW 19:14:43 49° NE
Gbstr 26 Del rocket 4.1 19:07:49 10° WNW 19:14:02 79° NNE 19:17:24 35° E
Cosmos 1076 Rocket 3.9 19:10:54 10° N 19:14:49 44° ENE 19:14:49 44° ENE
Cosmos 1461 3.3 19:12:08 10° NNW 19:15:57 42° NE 19:15:57 42° NE
Unknown 3.6 19:12:56 10° WSW 19:17:05 76° NNW 19:18:00 52° NE
Cosmos 1339 Rocket 4.3 19:11:49 10° S 19:17:53 85° E 19:24:03 10° N
Starlink (trailer) 3.7 19:14:34 10° WSW 19:18:43 75° NNW 19:19:33 54° NE
Shenzhou-11 Module 4.4 19:16:35 10° SW 19:17:22 15° SSW 19:17:22 15° SSW
Unknown 3.7 19:16:16 10° WSW 19:20:24 73° NNW 19:21:10 55° NE
Unknown 3.8 19:17:22 10° W 19:21:23 62° NNW 19:22:06 51° NNE
Cosmos 2058 Rocket 3.9 19:17:22 10° SSW 19:21:37 51° WNW 19:25:53 10° N
Unknown 3.7 19:17:53 10° WSW 19:22:02 72° NNW 19:22:44 57° NE
SJ-6B 3.4 19:25:01 43° NNE 19:25:01 43° NNE 19:27:48 10° N
Cosmos 1703 4.5 19:21:35 10° NNW 19:25:20 42° W 19:29:03 10° SSW
Lacrosse 5 2.2 19:21:23 10° NW 19:26:20 52° NNE 19:27:11 46° ENE
BREEZE-M DEB (TANK) 4.2 19:23:33 10° SW 19:25:25 22° SSW 19:25:25 22° SSW
BREEZE-M DEB (TANK) 3.3 19:19:29 10° SW 19:27:34 41° SSE 19:27:40 41° SSE
Cosmos 1605 Rocket 4.3 19:21:32 10° NNW 19:27:44 67° W 19:33:47 10° S
Unknown 3.7 19:24:33 10° WSW 19:28:41 68° NNW 19:29:07 62° NNE
Unknown 3.7 19:24:37 10° WSW 19:28:45 68° NNW 19:29:11 62° NNE
Unknown 3.7 19:25:25 10° WSW 19:29:33 68° NNW 19:29:57 63° NNE
Cosmos 1833 Rocket 2.5 19:24:14 10° NNW 19:29:53 76° ENE 19:31:28 48° SE
Cosmos 1459 Rocket 4.0 19:24:49 10° N 19:30:53 55° ENE 19:32:12 46° ESE
Unknown 3.8 19:29:34 10° W 19:33:42 65° NNW 19:33:55 64° N
Resurs 01 Rocket 3.3 19:35:40 22° NNE 19:35:40 22° NNE 19:37:42 10° N
Cosmos 1727 Rocket 3.8 19:28:48 10° S 19:34:58 80° E 19:41:10 10° N
ARGOS 3.1 19:34:28 56° E 19:35:01 59° ENE 19:40:22 10° N
Unknown 3.8 19:31:21 10° W 19:35:29 63° NNW 19:35:38 63° N
MOS 1 4.4 19:32:05 14° S 19:37:02 72° WSW 19:42:43 10° NNW
Cosmos 1802 Rocket 4.1 19:31:53 10° N 19:38:11 53° ENE 19:38:56 50° E
Cosmos 1726 4.0 19:35:22 10° SW 19:38:40 31° WNW 19:41:58 10° N
Unknown 3.9 19:34:40 10° W 19:38:47 62° NNW 19:38:49 62° NNW
Unknown 3.9 19:35:18 10° W 19:39:24 63° NNW 19:39:24 63° NNW
Unknown 3.9 19:36:16 10° W 19:40:20 62° NNW 19:40:20 62° NNW
COSMOS 2406 4.1 19:35:06 10° NW 19:40:37 48° WSW 19:45:00 16° S
Cosmos 1898 Rocket 4.4 19:36:11 10° N 19:40:09 34° NE 19:40:09 34° NE
Unknown 4.0 19:39:29 10° W 19:43:24 61° NNW 19:43:24 61° NNW
Cosmos 2082 Rocket 2.1 19:39:40 10° NNW 19:45:25 72° ENE 19:45:57 67° E
ATLAS CENTAUR R/B 4.0 19:43:57 10° NNW 19:45:52 12° N 19:46:39 12° NNE
Cosmos 292 Rocket 4.2 19:41:31 10° SW 19:46:12 59° WNW 19:50:55 10° NNE
Unknown 4.1 19:42:56 10° W 19:46:42 57° NW 19:46:42 57° NW
Unknown 4.2 19:44:35 10° W 19:48:18 55° NW 19:48:18 55° NW
Unknown 4.2 19:46:18 10° W 19:49:56 54° NW 19:49:56 54° NW
Cosmos 2173 Rocket 3.8 19:44:09 10° N 19:50:29 75° E 19:51:41 59° SE
Unknown 4.3 19:47:58 10° W 19:51:32 52° NW 19:51:32 52° NW
Lacrosse 5 rocket 3.6 19:50:05 10° W 19:52:29 16° SW 19:53:24 15° SW
Unknown 4.4 19:51:17 10° W 19:54:41 49° NW 19:54:41 49° NW
SJ 16-02 3.4 19:53:14 10° N 19:54:38 18° N 19:54:38 18° N
Cosmos 1725 Rocket 4.3 19:59:45 10° N 20:04:49 50° NE 20:04:49 50° NE
Cosmos 2100 Rocket 3.9 20:00:11 10° N 20:06:26 81° W 20:07:49 56° S
Cosmos 1000 Rocket 4.4 20:12:38 74° NE 20:12:38 74° NE 20:18:21 10° N
Cosmos 967 Rocket 4.4 20:08:10 10° NW 20:14:39 83° WSW 20:14:58 80° S
In-Cosmos 22 Rocket 4.3 20:10:34 10° NNW 20:15:08 65° NNW 20:15:08 65° NNW
ADEOS Rocket 3.4 20:09:09 10° NNE 20:17:02 90° WNW 20:24:28 10° SSW
SPOT 3 Rocket 4.3 20:20:31 46° WSW 20:21:06 48° W 20:26:09 10° NNW
Cosmos 2278 Rocket 2.6 20:22:12 10° SW 20:27:48 59° WNW 20:28:36 54° NNW
Cosmos 2016 Rocket 4.1 20:27:09 10° NNW 20:32:47 71° NW 20:32:47 71° NW
Cosmos 2061 Rocket 4.2 20:29:24 10° NNW 20:35:15 69° WNW 20:35:15 69° WNW
H-2A R/B 3.2 20:40:17 40° W 20:40:17 40° W 20:45:18 10° NNW
USA 234 4.4 20:44:53 31° SW 20:44:53 31° SW 20:48:01 10° SW
ATLAS 5 CENTAUR R/B 4.0 20:44:53 10° WNW 20:48:23 20° NNW 20:48:41 20° N
CZ-2C R/B 4.1 20:51:59 48° WNW 20:51:59 48° WNW 20:56:43 10° NNW
Lacrosse 5 4.0 21:04:28 10° WNW 21:06:22 22° WNW 21:06:22 22° WNW
Resurs 01 Rocket 4.4 21:13:14 16° NW 21:13:14 16° NW 21:14:14 10° NNW
Cosmos 2082 Rocket 4.4 21:24:44 10° NW 21:27:48 20° W 21:27:48 20° W
